Isle Of Man, United Kingdom

1:22 PM BST on April 24, 2017 (GMT +0100)
Isle Of Man

Weather History for EGNS - November, 2012

Change the Weather History Date:

Monday, November 5, 2012

  Actual Average Record
Temperature  
Mean Temperature 44 °F -  
Max Temperature 50 °F 49 °F 59 °F (2003)
Min Temperature 37 °F 42 °F 37 °F (2000)
Degree Days  
Heating Degree Days 22    
Moisture  
Dew Point 38 °F    
Average Humidity 78    
Maximum Humidity 93    
Minimum Humidity 66    
Precipitation  
Precipitation 0.08 in - - ()
Sea Level Pressure  
Sea Level Pressure 29.83 in    
Wind  
Wind Speed 6 mph ()    
Max Wind Speed 15 mph    
Max Gust Speed -    
Visibility 7.2 miles    
Events Rain    
Averages and records for this station are not official NWS values.
T = Trace of Precipitation, MM = Missing Value Source: Averaged Metar Reports

Daily Weather History Graph

Daily Weather History Graph

Search for Another Location

Airport or City:

Trip Planner

Search our weather history database for the weather conditions in past years. The results will help you decide how hot, cold, wet, or windy it might be!

Date:

Astronomy

Nov. 05, 2012 Rise Set
Actual Time 7:27 AM GMT 4:35 PM GMT
Civil Twilight 6:49 AM GMT 5:13 PM GMT
Nautical Twilight 6:07 AM GMT 5:56 PM GMT
Astronomical Twilight 5:25 AM GMT 6:37 PM GMT
Moon 9:57 PM GMT (11/5) 12:43 PM GMT (11/5)
Length of Visible Light 10h 24m
Length of Day
9h 07m
Waning Gibbous, 65% of the Moon is Illuminated
Nov 5
Waning Gibbous
Nov 7
Last Quarter
Nov 13
New
Nov 20
First Quarter
Nov 28
Full

Hourly Weather History & Observations

Time (GMT) Temp. Windchill Dew Point Humidity Pressure Visibility Wind Dir Wind Speed Gust Speed Precip Events Conditions
12:50 AM 41.0 °F 35.8 °F 35.6 °F 81% 29.56 in 6.2 mi North 8.1 mph - N/A   Partly Cloudy
2:50 AM 40 °F - 35 °F 78% 29.64 in 19 mi NNE 10.4 mph - -   Scattered Clouds
2:50 AM 41.0 °F 34.7 °F 35.6 °F 81% 29.62 in 6.2 mi NNE 10.4 mph - N/A   Partly Cloudy
3:50 AM 41.0 °F 34.7 °F 35.6 °F 81% 29.65 in 6.2 mi NNE 10.4 mph - N/A   Partly Cloudy
4:50 AM 39.2 °F 34.2 °F 35.6 °F 87% 29.68 in 6.2 mi North 6.9 mph - N/A   Partly Cloudy
5:20 AM 39.2 °F 33.6 °F 35.6 °F 87% 29.68 in 6.2 mi North 8.1 mph - N/A   Partly Cloudy
5:50 AM 38 °F - 35 °F 84% 29.71 in 19 mi North 5.8 mph - -   Scattered Clouds
5:50 AM 37.4 °F 32.1 °F 35.6 °F 93% 29.71 in 6.2 mi North 6.9 mph - N/A   Partly Cloudy
6:20 AM 39.2 °F 34.2 °F 35.6 °F 87% 29.71 in 6.2 mi North 6.9 mph - N/A   Partly Cloudy
6:50 AM 39.2 °F - 35.6 °F 87% 29.71 in 6.2 mi Variable 2.3 mph - N/A   Partly Cloudy
7:50 AM 37.4 °F - 35.6 °F 93% 29.74 in 6.2 mi Variable 2.3 mph - N/A   Partly Cloudy
8:20 AM 41.0 °F 36.4 °F 37.4 °F 87% 29.77 in 6.2 mi NNW 6.9 mph - N/A   Partly Cloudy
8:50 AM 44 °F - 39 °F 75% 29.78 in 25 mi North 5.8 mph - -   Scattered Clouds
8:50 AM 44.6 °F 41.4 °F 39.2 °F 81% 29.77 in 6.2 mi North 5.8 mph - N/A   Partly Cloudy
9:20 AM 46.4 °F 43.5 °F 37.4 °F 71% 29.77 in 6.2 mi NNW 5.8 mph - N/A   Partly Cloudy
9:50 AM 48.2 °F - 39.2 °F 71% 29.77 in 6.2 mi NNW 4.6 mph - N/A   Partly Cloudy
10:20 AM 44.6 °F 37.8 °F 39.2 °F 81% 29.80 in 6.2 mi NW 15.0 mph - N/A Rain Light Rain Showers
10:50 AM 44.6 °F - 37.4 °F 76% 29.80 in 6.2 mi Variable 2.3 mph - N/A   Mostly Cloudy
11:20 AM 46.4 °F 44.3 °F 41.0 °F 81% 29.80 in 6.2 mi NW 4.6 mph - N/A   Partly Cloudy
11:50 AM 46 °F - 39 °F 68% 29.82 in 25 mi WNW 5.8 mph - - Rain Light Rain Showers
11:50 AM 46.4 °F 43.5 °F 39.2 °F 76% 29.80 in 6.2 mi WNW 5.8 mph - N/A   Partly Cloudy
12:20 PM 48.2 °F - 41.0 °F 76% 29.80 in 6.2 mi NW 6.9 mph - N/A   Partly Cloudy
12:50 PM 50.0 °F - 39.2 °F 66% 29.83 in 6.2 mi NW 9.2 mph - N/A   Partly Cloudy
1:20 PM 50.0 °F - 39.2 °F 66% 29.83 in 6.2 mi NW 10.4 mph - N/A   Partly Cloudy
1:50 PM 50.0 °F - 41.0 °F 71% 29.83 in 6.2 mi NW 11.5 mph - N/A   Partly Cloudy
2:50 PM 48 °F - 41 °F 68% 29.86 in 31 mi NW 5.8 mph - -   Scattered Clouds
2:50 PM 48.2 °F - 41.0 °F 76% 29.86 in 6.2 mi NW 5.8 mph - N/A   Partly Cloudy
3:20 PM 48.2 °F - 39.2 °F 71% 29.86 in 6.2 mi WNW 4.6 mph - N/A   Partly Cloudy
3:50 PM 48.2 °F - 39.2 °F 71% 29.86 in 6.2 mi NNW 5.8 mph - N/A   Partly Cloudy
4:20 PM 46.4 °F 45.2 °F 39.2 °F 76% 29.89 in 6.2 mi Variable 3.5 mph - N/A   Partly Cloudy
4:50 PM 46.4 °F - 37.4 °F 71% 29.89 in 6.2 mi Variable 2.3 mph - N/A   Partly Cloudy
5:20 PM 46.4 °F - 39.2 °F 76% 29.89 in 6.2 mi Variable 1.2 mph - N/A   Partly Cloudy
5:50 PM 45 °F - 38 °F 68% 29.93 in 25 mi West 3.5 mph - -   Scattered Clouds
5:50 PM 44.6 °F 43.1 °F 37.4 °F 76% 29.92 in 6.2 mi Variable 3.5 mph - N/A   Partly Cloudy
6:20 PM 44.6 °F - 39.2 °F 81% 29.92 in 6.2 mi Variable 2.3 mph - N/A Rain Light Rain Showers
6:50 PM 46.4 °F 43.5 °F 41.0 °F 81% 29.95 in 6.2 mi NNW 5.8 mph - N/A   Mostly Cloudy
7:20 PM 46.4 °F 41.5 °F 41.0 °F 81% 29.95 in 6.2 mi NW 10.4 mph - N/A Rain Light Rain Showers
7:50 PM 46.4 °F 43.5 °F 41.0 °F 81% 29.98 in 6.2 mi North 5.8 mph - N/A   Mostly Cloudy
8:20 PM 44.6 °F 40.7 °F 39.2 °F 81% 29.98 in 6.2 mi North 6.9 mph - N/A   Partly Cloudy
8:50 PM 45 °F - 40 °F 75% 30.00 in 25 mi NNW 5.8 mph - -   Partly Cloudy
8:50 PM 44.6 °F 41.4 °F 39.2 °F 81% 29.98 in 6.2 mi NNW 5.8 mph - N/A   Partly Cloudy
9:50 PM 42.8 °F 41.1 °F 37.4 °F 81% 30.01 in 6.2 mi East 3.5 mph - N/A   Partly Cloudy
10:50 PM 46.4 °F 41.1 °F 37.4 °F 71% 30.01 in 6.2 mi NNW 11.5 mph - N/A   Partly Cloudy
11:50 PM 46 °F - 40 °F 74% 30.05 in 19 mi NW 11.5 mph - -   Partly Cloudy
11:50 PM 46.4 °F 41.1 °F 41.0 °F 81% 30.04 in 6.2 mi NW 11.5 mph - N/A   Scattered Clouds